Palma de Mallorca, Spain

5:53 AM CET on March 25, 2017 (GMT +0100)
Palma de Mallorca

Weather History for 08306 - February, 2014

Change the Weather History Date:

Wednesday, February 26, 2014

  Actual Average Record
Temperature  
Mean Temperature 53 °F -  
Max Temperature 62 °F 61 °F - ()
Min Temperature 44 °F 41 °F - ()
Degree Days  
Heating Degree Days 12    
Growing Degree Days 3 (Base 50)    
Moisture  
Dew Point 39 °F    
Average Humidity 54    
Maximum Humidity 88    
Minimum Humidity 25    
Precipitation  
Precipitation 0.00 in 0.05 in - ()
Sea Level Pressure  
Sea Level Pressure 30.17 in    
Wind  
Wind Speed 7 mph ()    
Max Wind Speed 16 mph    
Max Gust Speed -    
Visibility 7.4 miles    
Events Rain    
T = Trace of Precipitation, MM = Missing Value Source: Averaged Metar Reports

Daily Weather History Graph

Daily Weather History Graph

Search for Another Location

Airport or City:

Trip Planner

Search our weather history database for the weather conditions in past years. The results will help you decide how hot, cold, wet, or windy it might be!

Date:

Astronomy

Feb. 26, 2014 Rise Set
Actual Time 7:26 AM CET 6:37 PM CET
Civil Twilight 6:59 AM CET 7:04 PM CET
Nautical Twilight 6:28 AM CET 7:36 PM CET
Astronomical Twilight 5:57 AM CET 8:07 PM CET
Moon 4:59 AM CET (2/26) 3:34 PM CET (2/26)
Length of Visible Light 12h 05m
Length of Day
11h 11m
Waning Crescent, 12% of the Moon is Illuminated
Feb 26
Waning Crescent
Mar 1
New
Mar 8
First Quarter
Mar 16
Full
Mar 24
Last Quarter

Hourly Weather History & Observations

Time (CET) Temp. Dew Point Humidity Pressure Visibility Wind Dir Wind Speed Gust Speed Precip Events Conditions
12:00 AM 55 °F 49 °F 75% 30.09 in - WSW 8.1 mph - -  
12:00 AM 55.4 °F 48.2 °F 77% 30.06 in 6.2 mi WSW 10.4 mph - N/A   Partly Cloudy
12:30 AM 53.6 °F 48.2 °F 82% 30.06 in 6.2 mi WSW 8.1 mph - N/A   Partly Cloudy
1:00 AM 54 °F 50 °F 81% 30.08 in 9 mi Calm Calm - -   Scattered Clouds
1:00 AM 51.8 °F 48.2 °F 88% 30.06 in 6.2 mi SW 3.5 mph - N/A   Partly Cloudy
1:30 AM 53.6 °F 48.2 °F 82% 30.06 in 6.2 mi WSW 8.1 mph - N/A   Partly Cloudy
2:00 AM 53 °F 45 °F 67% 30.09 in - West 2.3 mph - -  
2:00 AM 53.6 °F 46.4 °F 77% 30.06 in 6.2 mi Variable 1.2 mph - N/A   Partly Cloudy
2:30 AM 55.4 °F 44.6 °F 67% 30.06 in 6.2 mi WNW 5.8 mph - N/A   Partly Cloudy
3:00 AM 53 °F 43 °F 61% 30.07 in - North 2.3 mph - -  
3:00 AM 51.8 °F 42.8 °F 71% 30.06 in 6.2 mi Calm Calm - N/A   Partly Cloudy
3:30 AM 55.4 °F 46.4 °F 72% 30.06 in 6.2 mi WNW 6.9 mph - N/A   Partly Cloudy
4:00 AM 55 °F 42 °F 50% 30.09 in 9 mi North 10.4 mph - -   Scattered Clouds
4:00 AM 55.4 °F 41.0 °F 58% 30.09 in 6.2 mi North 13.8 mph - N/A   Partly Cloudy
4:30 AM 53.6 °F 41.0 °F 62% 30.09 in 6.2 mi WNW 5.8 mph - N/A   Partly Cloudy
5:00 AM 52 °F 41 °F 57% 30.11 in - West 5.8 mph - -  
5:00 AM 51.8 °F 41.0 °F 67% 30.09 in 6.2 mi WNW 8.1 mph - N/A   Partly Cloudy
5:30 AM 50.0 °F 41.0 °F 71% 30.09 in 6.2 mi West 8.1 mph - N/A   Partly Cloudy
6:00 AM 52 °F 39 °F 51% 30.12 in - WNW 8.1 mph - -  
6:00 AM 51.8 °F 39.2 °F 62% 30.09 in 6.2 mi NW 11.5 mph - N/A   Partly Cloudy
6:30 AM 51.8 °F 39.2 °F 62% 30.09 in 6.2 mi NW 5.8 mph - N/A   Partly Cloudy
7:00 AM 53 °F 35 °F 38% 30.13 in 16 mi NW 13.8 mph - -   Scattered Clouds
7:00 AM 53.6 °F 35.6 °F 51% 30.12 in 6.2 mi NW 8.1 mph - N/A   Partly Cloudy
7:30 AM 53.6 °F 35.6 °F 51% 30.12 in 6.2 mi NNW 12.7 mph - N/A   Partly Cloudy
8:00 AM 53 °F 34 °F 37% 30.16 in - WNW 9.2 mph - -  
8:00 AM 53.6 °F 35.6 °F 51% 30.15 in 6.2 mi NW 12.7 mph - N/A   Partly Cloudy
8:30 AM 53.6 °F 35.6 °F 51% 30.15 in - NW 12.7 mph - N/A   Clear
9:00 AM 55 °F 35 °F 34% 30.17 in - NNW 13.8 mph - -  
9:00 AM 55.4 °F 35.6 °F 47% 30.15 in 6.2 mi NNW 13.8 mph - N/A   Partly Cloudy
9:30 AM 55.4 °F 35.6 °F 47% 30.18 in - NNW 16.1 mph - N/A   Clear
10:00 AM 58 °F 37 °F 34% 30.19 in 19 mi NNW 13.8 mph - -   Scattered Clouds
10:00 AM 57.2 °F 37.4 °F 48% 30.18 in 6.2 mi NNW 15.0 mph - N/A   Partly Cloudy
10:30 AM 57.2 °F 37.4 °F 48% 30.18 in 6.2 mi NNW 12.7 mph - N/A   Partly Cloudy
11:00 AM 60 °F 36 °F 30% 30.21 in - NNW 11.5 mph - -  
11:00 AM 59.0 °F 37.4 °F 45% 30.18 in 6.2 mi NNW 11.5 mph - N/A   Partly Cloudy
12:00 PM 61 °F 38 °F 31% 30.23 in - NNW 11.5 mph - -  
12:30 PM 59.0 °F 39.2 °F 48% 30.21 in 6.2 mi NNW 9.2 mph - N/A   Scattered Clouds
1:00 PM 59 °F 37 °F 32% 30.23 in 19 mi NNW 10.4 mph - -   Partly Cloudy
1:00 PM 59.0 °F 37.4 °F 45% 30.21 in 6.2 mi NNW 9.2 mph - N/A   Scattered Clouds
1:30 PM 59.0 °F 35.6 °F 42% 30.21 in 6.2 mi NW 9.2 mph - N/A   Scattered Clouds
2:00 PM 62 °F 35 °F 25% 30.21 in - NNW 5.8 mph - -  
2:00 PM 60.8 °F 35.6 °F 39% 30.21 in 6.2 mi NNW 5.8 mph - N/A   Scattered Clouds
2:30 PM 59.0 °F 33.8 °F 39% 30.18 in 6.2 mi NNW 5.8 mph - N/A   Partly Cloudy
3:00 PM 60 °F 36 °F 29% 30.20 in - North 6.9 mph - -  
3:00 PM 59.0 °F 35.6 °F 42% 30.18 in 6.2 mi NW 8.1 mph - N/A   Partly Cloudy
3:30 PM 59.0 °F 39.2 °F 48% 30.18 in 6.2 mi North 4.6 mph - N/A   Partly Cloudy
4:00 PM 59 °F 38 °F 33% 30.20 in 19 mi NW 9.2 mph - -   Scattered Clouds
4:30 PM 59.0 °F 37.4 °F 45% 30.18 in 6.2 mi North 9.2 mph - N/A   Partly Cloudy
5:00 PM 59 °F 37 °F 33% 30.21 in - NNW 8.1 mph - -  
5:00 PM 59.0 °F 39.2 °F 48% 30.21 in 6.2 mi North 9.2 mph - N/A   Partly Cloudy
5:30 PM 57.2 °F 39.2 °F 51% 30.21 in 6.2 mi North 10.4 mph - N/A   Partly Cloudy
6:00 PM 56 °F 39 °F 41% 30.23 in - NNW 8.1 mph - -  
6:00 PM 55.4 °F 39.2 °F 54% 30.21 in 6.2 mi NNW 9.2 mph - N/A   Partly Cloudy
6:30 PM 53.6 °F 39.2 °F 58% 30.21 in 6.2 mi NNW 6.9 mph - N/A   Partly Cloudy
7:00 PM 53 °F 39 °F 48% 30.26 in 9 mi NNW 10.4 mph - -   Partly Cloudy
7:00 PM 53.6 °F 39.2 °F 58% 30.24 in 6.2 mi NNW 9.2 mph - N/A   Scattered Clouds
7:30 PM 53.6 °F 37.4 °F 54% 30.27 in 6.2 mi NNW 12.7 mph - N/A   Scattered Clouds
8:00 PM 53 °F 40 °F 52% 30.28 in - West 8.1 mph - -  
8:00 PM 53.6 °F 41.0 °F 62% 30.27 in 6.2 mi WNW 5.8 mph - N/A   Mostly Cloudy
8:30 PM 53.6 °F 35.6 °F 51% 30.27 in 6.2 mi SSW 11.5 mph - N/A Rain Light Rain
9:00 PM 52 °F 37 °F 45% 30.27 in - SSW 2.3 mph - -  
9:00 PM 53.6 °F 37.4 °F 54% 30.27 in 6.2 mi SSW 6.9 mph - N/A   Scattered Clouds
9:30 PM 51.8 °F 39.2 °F 62% 30.27 in 6.2 mi North 8.1 mph - N/A   Scattered Clouds
10:00 PM 49 °F 37 °F 54% 30.30 in 9 mi NNW 2.3 mph - -   Partly Cloudy
10:00 PM 48.2 °F 39.2 °F 71% 30.27 in 6.2 mi NNW 3.5 mph - N/A   Scattered Clouds
10:30 PM 46.4 °F 37.4 °F 71% 30.30 in 6.2 mi Calm Calm - N/A   Partly Cloudy
11:00 PM 45 °F 38 °F 68% 30.31 in - NNW 4.6 mph - -  
11:00 PM 44.6 °F 37.4 °F 76% 30.30 in 6.2 mi Calm Calm - N/A   Partly Cloudy
11:30 PM 44.6 °F 37.4 °F 76% 30.30 in 6.2 mi Variable 1.2 mph - N/A   Partly Cloudy